Orbital Elements
Epoch 2004 Mar. 16.0 TT = JDT 2453080.5
T 2004 Mar. 13.30654 TT Rudenko
q 4.3318477 (2000.0) P Q
n 0.06373723 Peri. 37.29069 +0.16048329 -0.97933044
a 6.2068882 Node 43.86188 +0.85736991 +0.07651233
e 0.3020903 Incl. 10.23426 +0.48904186 +0.18723715
P 15.5
From 117 observations 2003 Nov. 21-2020 May 5, mean residual 0".5.
|